This demonstration page uses our WeatherBlox Daily Observations layout. Learn more.

Left ArrowRight Arrow

44.8408, -93.29828

Hourly Observations for November 19, 2016

Temp ( °F °C ) Dew Point ( °F °C ) Humidity (%) Winds ( mph kmh ) Pressure ( in mb ) Visibility ( mi km ) Precip ( " mm )
12:53 am 00:53 Cloudy 31 -0.6 23 -5 72 72 NW 21 33 30.14 1021 10 16 0.00 0.00
1:53 am 01:53 Cloudy 31 -0.6 23 -5 72 72 NW 18 30 30.17 1022 10 16 0.00 0.00
2:53 am 02:53 Cloudy 31 -0.6 21 -6.1 67 67 NNW 24 39 30.21 1023 10 16 0.00 0.00
3:53 am 03:53 Cloudy 31 -0.6 21 -6.1 67 67 NNW 17 28 30.24 1024 10 16 0.00 0.00
4:06 am 04:06 Cloudy 30 -1 19 -7 64 64 NW 25 41 30.24 1024 10 16 0.00 0.00
4:33 am 04:33 Cloudy 30 -1.1 22 -5.6 72 72 NW 28 44 30.24 1024 10 16 0.00 0.00
4:53 am 04:53 Cloudy 30 -1.1 20 -6.7 66 66 NW 22 35 30.25 1024 10 16 0.00 0.00
5:53 am 05:53 Cloudy 30 -1.1 18 -7.8 61 61 NNW 28 44 30.27 1025 10 16 0.00 0.00
6:53 am 06:53 Cloudy 29 -1.7 18 -7.8 63 63 NW 20 31 30.30 1026 10 16 0.00 0.00
7:53 am 07:53 Windy with Snow Likely 28 -2.2 19 -7.2 69 69 NW 20 31 30.33 1027 9 14 0.00 0.03
8:53 am 08:53 Mostly Cloudy 27 -2.8 18 -7.8 69 69 NW 18 30 30.36 1028 10 16 0.00 0.03
9:53 am 09:53 Cloudy 28 -2.2 19 -7.2 69 69 NW 21 33 30.38 1029 10 16 0.00 0.00
10:45 am 10:45 Cloudy 28 -2.2 19 -7.2 69 69 NW 22 35 30.42 1030 10 16 0.00 0.00
10:53 am 10:53 Cloudy 28 -2.2 19 -7.2 69 69 NW 20 31 30.40 1030 10 16 0.00 0.00
11:53 am 11:53 Cloudy 29 -1.7 18 -7.8 63 63 NW 16 26 30.40 1029 10 16 0.00 0.00
12:53 pm 12:53 Cloudy 29 -1.7 18 -7.8 63 63 NW 16 26 30.41 1030 10 16 0.00 0.00
1:53 pm 13:53 Cloudy 30 -1.1 17 -8.3 58 58 NNW 20 31 30.42 1030 10 16 0.00 0.00
2:53 pm 14:53 Mostly Cloudy 29 -1.7 16 -8.9 58 58 NW 14 22 30.43 1031 10 16 0.00 0.00
3:53 pm 15:53 Mostly Cloudy 28 -2.2 16 -8.9 60 60 NW 16 26 30.45 1031 10 16 0.00 0.00
4:53 pm 16:53 Partly Cloudy 27 -2.8 15 -9.4 61 61 NW 15 24 30.45 1031 10 16 0.00 0.00
5:53 pm 17:53 Partly Cloudy 26 -3.3 15 -9.4 63 63 NNW 12 19 30.45 1031 10 16 0.00 0.00
6:53 pm 18:53 Mostly Clear 25 -3.9 15 -9.4 66 66 NW 9 15 30.48 1032 10 16 0.00 0.00
7:53 pm 19:53 Partly Cloudy 24 -4.4 16 -8.9 71 71 NW 10 17 30.48 1032 10 16 0.00 0.00
8:53 pm 20:53 Mostly Cloudy 25 -3.9 16 -8.9 69 69 NW 7 11 30.47 1032 10 16 0.00 0.00
9:53 pm 21:53 Partly Cloudy 24 -4.4 16 -8.9 71 71 NW 8 13 30.47 1032 10 16 0.00 0.00
10:53 pm 22:53 Mostly Clear 24 -4.4 16 -8.9 71 71 NNW 9 15 30.47 1032 10 16 0.00 0.00
11:53 pm 23:53 Mostly Clear 24 -4.4 17 -8.3 75 75 N 5 7 30.46 1031 10 16 0.00 0.00

Powered by AerisWeather